NOAA-14
1 23455U 94089A   05006.33726733 -.00000056  00000-0 -51405-5 0  4251
2 23455  99.1150  51.8429 0010137  97.4642 262.7719 14.13524252516633
SICH-1
1 23657U 95046A   05006.77085147  .00000486  00000-0  59508-4 0  3204
2 23657  82.5279 188.6997 0022964 295.1332  64.7469 14.81045814504061
NOAA-15
1 25338U 98030A   05006.16655402  .00000060  00000-0  43997-4 0  8699
2 25338  98.5158  19.4160 0011496 110.1705 250.0726 14.24479716345689
RESURS
1 25394U 98043A   05005.97715637  .00000029  00000-0  31045-4 0 09901
2 25394 098.5599 079.6570 0000567 250.4802 109.6318 14.24044279337360
FENGYUN1
1 25730U 99025A   05006.83153125 -.00000159  00000-0 -64259-4 0  3194
2 25730  98.6050  15.0869 0014459 198.0105 162.0549 14.11786330291747
OKEAN-0
1 25860U 99039A   05006.78934239  .00000251  00000-0  46247-4 0  3244
2 25860  97.7753  39.6378 0001581  63.9361 296.1999 14.73182560294243
NOAA-16
1 26536U 00055A   05006.11471853 -.00000028  00000-0  92058-5 0  1759
2 26536  98.9930 323.8219 0010864 161.3957 198.7598 14.12194357221189
NOAA-17
1 27453U 02032A   05006.35924957  .00000262  00000-0  13395-3 0  1999
2 27453  98.6797  82.2020 0012365 161.8539 198.3110 14.23617499131816
HUBBLE
1 20580U 90037B   05006.80347362  .00001013  00000-0  67454-4 0  2424
2 20580  28.4658 240.1795 0003620 357.9924   2.0640 14.99529225605997
UARS
1 21701U 91063B   05006.45804505 -.00000369  00000-0 -79328-5 0  3495
2 21701  56.9793 125.6017 0006404  85.0696 275.1023 15.03725375729165
PO-34
1 25520U 98064B   05006.05232949  .00001379  00000-0  59986-4 0   864
2 25520  28.4613 316.0706 0005880 259.3987 100.5942 15.16019930341955
ISS
1 25544U 98067A   05007.00588441  .00014161  00000-0  10842-3 0  5337
2 25544  51.6391   5.0545 0003584 171.3818 238.2117 15.72431549350345
OO-38
1 26063U 00004C   05006.37671812  .00000037  00000-0  32898-4 0  2534
2 26063 100.2244 196.6501 0037119 150.1087 210.2201 14.35694100259077
NO-45
1 26932U 01043D   05005.96536360 -.00000100  00000-0 -68401-5 0  9311
2 26932  67.0598 285.2378 0008352 277.3740  82.6696 14.29463909170611
